Saginaw, MI

3:42 PM EDT on September 24, 2017 (GMT -0400)
MBS International

Weather History for KMBS - November, 2012

Change the Weather History Date:

Friday, November 16, 2012

  Actual Average Record
Temperature  
Mean Temperature 39 °F 38 °F  
Max Temperature 50 °F 46 °F 65 °F (2015)
Min Temperature 28 °F 31 °F 15 °F (1997)
Degree Days  
Heating Degree Days 26    
Month to date heating degree days  
Since 1 July heating degree days  
Cooling Degree Days 0    
Month to date cooling degree days  
Year to date cooling degree days  
Moisture  
Dew Point 32 °F    
Average Humidity 84    
Maximum Humidity 100    
Minimum Humidity 61    
Precipitation  
Precipitation 0.00 in 0.09 in 0.68 in (2006)
Month to date precipitation 1.50  
Year to date precipitation 28.48  
Snow  
Snow 0.00 in - - ()
Month to date snowfall  
Since 1 July snowfall  
Since 1 September snowfall  
Snow Depth -    
Sea Level Pressure  
Sea Level Pressure 30.48 in    
Wind  
Wind Speed 4 mph (SSE)    
Max Wind Speed 6 mph    
Max Gust Speed -    
Visibility 4 miles    
Events Fog    
T = Trace of Precipitation, MM = Missing Value Source: NWS Daily Summary

Daily Weather History Graph

Daily Weather History Graph

Search for Another Location

Airport or City:

Trip Planner

Search our weather history database for the weather conditions in past years. The results will help you decide how hot, cold, wet, or windy it might be!

Date:

Astronomy

Nov. 16, 2012 Rise Set
Actual Time 7:31 AM EST 5:09 PM EST
Civil Twilight 7:00 AM EST 5:40 PM EST
Nautical Twilight 6:26 AM EST 6:15 PM EST
Astronomical Twilight 5:52 AM EST 6:49 PM EST
Moon 10:27 AM EST (11/16) 8:07 PM EST (11/16)
Length of Visible Light 10h 39m
Length of Day
9h 37m
Waxing Crescent, 11% of the Moon is Illuminated
Nov 16
Waxing Crescent
Nov 20
First Quarter
Nov 28
Full
Dec 6
Last Quarter
Dec 13
New

Hourly Weather History & Observations

Time (EST) Temp. Windchill Dew Point Humidity Pressure Visibility Wind Dir Wind Speed Gust Speed Precip Events Conditions
12:53 AM 32.0 °F 26.4 °F 26.1 °F 79% 30.39 in 6.0 mi SW 5.8 mph - N/A   Haze
1:53 AM 30.0 °F 26.5 °F 26.1 °F 85% 30.40 in 5.0 mi WSW 3.5 mph - N/A   Clear
2:53 AM 28.9 °F 23.9 °F 25.0 °F 85% 30.41 in 5.0 mi SW 4.6 mph - N/A   Clear
3:53 AM 30.0 °F 24.1 °F 26.1 °F 85% 30.40 in 6.0 mi SW 5.8 mph - N/A   Clear
4:53 AM 28.0 °F 22.8 °F 25.0 °F 88% 30.42 in 5.0 mi WSW 4.6 mph - N/A   Clear
5:53 AM 28.0 °F 24.2 °F 25.0 °F 88% 30.44 in 4.0 mi WSW 3.5 mph - N/A   Clear
6:53 AM 28.9 °F 23.9 °F 25.0 °F 85% 30.45 in 5.0 mi West 4.6 mph - N/A   Clear
7:53 AM 28.0 °F 22.8 °F 24.1 °F 85% 30.46 in 3.0 mi SW 4.6 mph - N/A   Mostly Cloudy
8:53 AM 30.0 °F 26.5 °F 27.0 °F 88% 30.48 in 3.0 mi WSW 3.5 mph - N/A   Clear
9:53 AM 36.0 °F 33.3 °F 30.0 °F 79% 30.48 in 4.0 mi West 3.5 mph - N/A   Haze
10:53 AM 42.1 °F - 35.1 °F 76% 30.49 in 4.0 mi Calm Calm - N/A   Haze
11:53 AM 46.0 °F - 37.0 °F 71% 30.48 in 6.0 mi Calm Calm - N/A   Haze
12:53 PM 48.0 °F - 37.0 °F 66% 30.48 in 7.0 mi Calm Calm - N/A   Clear
1:53 PM 48.9 °F - 37.0 °F 64% 30.48 in 8.0 mi NE 3.5 mph - N/A   Clear
2:53 PM 50.0 °F - 37.0 °F 61% 30.49 in 8.0 mi Calm Calm - N/A   Clear
3:53 PM 50.0 °F - 37.0 °F 61% 30.49 in 8.0 mi Calm Calm - N/A   Clear
4:53 PM 44.1 °F 40.8 °F 36.0 °F 73% 30.51 in 6.0 mi East 5.8 mph - N/A   Haze
5:53 PM 39.0 °F 35.7 °F 34.0 °F 82% 30.51 in 6.0 mi ESE 4.6 mph - N/A   Haze
6:53 PM 37.9 °F 33.5 °F 34.0 °F 86% 30.52 in 5.0 mi ESE 5.8 mph - N/A   Clear
7:53 PM 37.0 °F 33.3 °F 34.0 °F 89% 30.52 in 5.0 mi ESE 4.6 mph - N/A   Clear
8:53 PM 35.1 °F 31.0 °F 33.1 °F 92% 30.52 in 2.5 mi SE 4.6 mph - N/A   Clear
9:16 PM 35.6 °F 30.7 °F 33.8 °F 93% 30.49 in 3.0 mi SE 5.8 mph - N/A   Clear
9:45 PM 35.6 °F 30.7 °F 33.8 °F 93% 30.49 in 2.5 mi SE 5.8 mph - N/A   Clear
9:53 PM 36.0 °F 33.3 °F 34.0 °F 93% 30.52 in 3.0 mi SE 3.5 mph - N/A   Clear
10:00 PM 37.4 °F 34.9 °F 35.6 °F 93% 30.50 in 2.5 mi SE 3.5 mph - N/A   Clear
10:23 PM 35.6 °F 32.8 °F 33.8 °F 93% 30.49 in 1.5 mi SE 3.5 mph - N/A   Clear
10:38 PM 33.8 °F 30.8 °F 32.0 °F 93% 30.50 in 0.2 mi ESE 3.5 mph - N/A Fog Fog
10:53 PM 35.1 °F - 34.0 °F 96% 30.52 in 0.8 mi Calm Calm - N/A   Clear
10:56 PM 33.8 °F - 33.8 °F 100% 30.50 in 0.5 mi Calm Calm - N/A Fog Fog
11:03 PM 33.8 °F - 32.0 °F 93% 30.50 in 0.2 mi Calm Calm - N/A Fog Fog
11:12 PM 33.8 °F - 32.0 °F 93% 30.50 in 0.2 mi Calm Calm - N/A Fog Fog
11:53 PM 30.9 °F 27.5 °F 28.0 °F 89% 30.52 in 0.2 mi NNE 3.5 mph - N/A Fog Light Freezing Fog